Regional Weather Roundup
Issued by NWS

Home | Current Version | Previous Version | Text Only | Print | Product List | Glossary Off
Versions: 1 2 3 4 5 6 7 8 9 10 11 12 13 14 15 16 17 18 19 20 21 22 23 24 25 26 27 28 29 30 31 32 33 34 35 36 37 38 39 40 41 42 43 44 45 46 47 48 49 50

000
ASUS43 KLMK 050610
RWRKY
KENTUCKY REGIONAL WEATHER ROUNDUP
NATIONAL WEATHER SERVICE LOUISVILLE KY
200 AM EDT TUE MAY 05 2015

NOTE "FAIR" INDICATES FEW OR NO CLOUDS BELOW 12,000 FEET
WITH NO SIGNIFICANT WEATHER AND/OR OBSTRUCTIONS TO VISIBILITY.

KYZ001>023-026-027-061>063-070>075-050700-
WESTERN AND SOUTH CENTRAL KENTUCKY

CITY           SKY/WX    TMP DP  RH WIND       PRES   REMARKS
PADUCAH        CLEAR     66  51  58 S3        30.19R
HENDERSON      CLEAR     64  52  63 S6        30.19R
OWENSBORO      CLEAR     64  57  78 S6        30.21S
HOPKINSVILLE   CLEAR     65  53  65 S1        30.21S
BOWLING GREEN  CLEAR     60  54  80 CALM      30.23S
GLASGOW        CLEAR     58  53  85 CALM      30.24R
$$

KYZ024-025-028>034-038-045-046-053-050700-
NORTH CENTRAL KENTUCKY

CITY           SKY/WX    TMP DP  RH WIND       PRES   REMARKS
LOUISVILLE/SDF PTCLDY    68  57  68 S5        30.21S
LOUISVILLE/LOU CLEAR     65  57  75 CALM      30.22R
FORT KNOX      CLEAR     62  56  78 S2        30.21S
$$

KYZ035>037-039>044-047>052-055>060-089>105-050700-
NORTHEAST KENTUCKY

CITY           SKY/WX    TMP DP  RH WIND       PRES   REMARKS
LEXINGTON      PTCLDY    64  55  72 S7        30.24S
COVINGTON      PTCLDY    67  57  70 NW5       30.22R
FRANKFORT      PTCLDY    62  55  77 CALM      30.21F
$$

KYZ054-064>069-076>088-106>120-050700-
SOUTHEAST KENTUCKY

CITY           SKY/WX    TMP DP  RH WIND       PRES   REMARKS
JACKSON        PTCLDY    65  49  56 CALM      30.27S
LONDON         CLEAR     58  51  78 CALM      30.27S
SOMERSET       PTCLDY    55  52  88 CALM      30.28S
MIDDLESBORO    CLEAR     53  52  95 CALM      30.30S
MONTICELLO     CLEAR     56  53  89 CALM      30.29S
$$




USA.gov is the U.S. government's official web portal to all federal, state and local government web resources and services.